Location: Couloutre
(47.4081°N, 3.2259°E)
Time: 09:13:04
(UTC+00:00)

Okean 1-7 - Pass Details

Date: 27 February 2020
Orbit: 592 x 618 km, 82.5° (Epoch: 04 April)

Event Time Altitude Azimuth Distance (km) Brightness Sun altitude
Rises 18:41:10 0° 351° (N) 2,865 6.6 -13.1°
Reaches altitude 10° 18:43:23 10° 352° (N) 1,961 5.8 -13.5°
Maximum altitude 18:47:44 84° 80° (E) 618 2.9 -14.2°
Drops below altitude 10° 18:52:05 10° 170° (S) 1,961 5.5 -14.9°
Sets 18:54:18 0° 171° (S) 2,864 6.3 -15.3°
